Вернуться в каталог

AII-BRAVO

АктивенСвязьSSO
NORAD 48270·PAYLOAD·🇱🇹 Lithuania

Запущен Apr 29, 2021 с Guiana Space Centre

Loading…

Ближайшие Пролёты (ближайшие 24 часа)

TLE

СвежийSource: Space-Track

Эпоха: Sep 14, 2026, 14:03 UTC

1 48270U 21034C   26257.58543767  .00002367  00000-0  17546-3 0  9992
2 48270  97.5515 310.4525 0004869 334.9884  25.1105 15.04046868293056

Отслеживайте AII-BRAVO в реальном времени с AllMySat

Download on the App Store